Content
SEND FEEDBACK

Daily
Averages
Monthly
Summary
United States of America

MANISTIQUE, MICHIGAN


Home > North America > United States > Michigan
Elevation: 186 meters     Latitude: 45 58N     Longitude: 086 15W

WEATHER
 
SELECT A DAY
Number of Records: 421,285;   Date Range: 5/11/98 - 12/17/14
 
SHARE

PRINT THIS DATA

[ ← Previous Day ]
WEATHER ALMANAC - 27 APRIL, 2014
[ Next Day → ]
[ °F ]   °C
Weather ElementAverageHighLow
Temperature3.6 °C9.6 °C (4:54 pm)-3.2 °C (2:54 am)
Dewpoint-4.3 °C-3.5 °C (12:55 am)-5.5 °C (5:34 pm)
Humidity59.8 %92 % (2:54 am)35 % (4:54 pm)
Barometer1022.7 hPa1024.4 hPa (10:35 am)1020.7 hPa (6:55 pm)
Wind Speed15.4 km/h35.2 km/h (4:54 pm)
Wind Gust46.3 km/h (4:54 pm)
Weather ElementAverage
Visibility16.1 km
Wind DirectionESE (119.9 °)

Weather ElementTotal
Precipitation---
Heating Degree Days15.2 (Base 18.3)
Averaged from 70 records on 27 April, 2014
WEATHER CONDITIONS BREAKOUT
WIND DIRECTION BREAKOUT
WEATHER BY HOUR - 27 APRIL, 2014
[ °F ]   °C
Local TimeTemperatureDewpointHumidityBarometerVisibilityWind DirectionWind SpeedGust SpeedPrecipitationEventsConditions
12:34 AM-2.3 °C-3.8 °C90 %1021.7 hPa16.1 kmNNW (340°)11.1 km/hClear
12:55 AM-1.8 °C-3.5 °C88 %1021.7 hPa16.1 kmNorth (360°)11.1 km/hClear
1:14 AM-2 °C-3.6 °C89 %1022 hPa16.1 kmNorth (350°)13 km/hClear
1:35 AM-2 °C-3.7 °C88 %1022.4 hPa16.1 kmWest (280°)9.3 km/hClear
1:54 AM-2.2 °C-4 °C88 %1022.4 hPa16.1 kmNorth (350°)7.4 km/hClear
2:14 AM-2 °C-3.5 °C90 %1022.7 hPa16.1 kmNNW (340°)7.4 km/hClear
2:35 AM-2.1 °C-3.6 °C90 %1022.7 hPa16.1 kmNNW (330°)5.6 km/hClear
2:54 AM-3.2 °C-4.4 °C92 %1022.7 hPa16.1 kmWNW (290°)9.3 km/hClear
3:15 AM-2.6 °C-3.8 °C92 %1022.4 hPa16.1 kmNorth (10°)5.6 km/hClear
3:35 AM-2.5 °C-3.7 °C92 %1022.4 hPa16.1 kmNorth (10°)5.6 km/hClear
3:54 AM-2.5 °C-3.6 °C92 %1022.7 hPa16.1 kmWest (280°)9.3 km/hClear
4:15 AM-2.5 °C-3.7 °C92 %1022.7 hPa16.1 kmNNE (20°)5.6 km/hClear
4:35 AM-2.2 °C-4.3 °C86 %1022.7 hPa16.1 kmNorthClear
4:54 AM-2.5 °C-4.5 °C86 %1022.7 hPa16.1 kmNorthClear
5:15 AM-2 °C-4.5 °C83 %1022.7 hPa16.1 kmNorthClear
5:34 AM-2 °C-4.5 °C83 %1022.7 hPa16.1 kmENE (70°)7.4 km/hClear
5:54 AM-1.8 °C-4.5 °C82 %1022.7 hPa16.1 kmEast (90°)7.4 km/hClear
6:15 AM-1.4 °C-4.5 °C80 %1022.4 hPa16.1 kmEast (80°)11.1 km/hClear
6:34 AM-1.1 °C-4.6 °C77 %1022.7 hPa16.1 kmEast (80°)9.3 km/hClear
6:55 AM-1.5 °C-4.6 °C80 %1022.7 hPa16.1 kmEast (80°)7.4 km/hClear
7:15 AM-1.1 °C-4.3 °C79 %1023 hPa16.1 kmEast (80°)7.4 km/hClear
7:34 AM0 °C-4 °C75 %1023.7 hPa16.1 kmEast (100°)9.3 km/hClear
7:55 AM0.7 °C-3.7 °C73 %1023.7 hPa16.1 kmEast (90°)9.3 km/hClear
8:15 AM1.6 °C-3.8 °C68 %1023.7 hPa16.1 kmEast (90°)9.3 km/hScattered Clouds
8:34 AM2.6 °C-3.5 °C64 %1023.7 hPa16.1 kmESE (110°)13 km/hClear
8:55 AM3.1 °C-3.7 °C61 %1023.7 hPa16.1 kmESE (120°)18.5 km/h33.3 km/hClear
9:14 AM3.5 °C-3.8 °C59 %1024 hPa16.1 kmESE (120°)14.8 km/h35.2 km/hClear
9:34 AM3.9 °C-3.8 °C58 %1023.7 hPa16.1 kmESE (120°)16.7 km/h29.6 km/hClear
9:55 AM4 °C-4.2 °C56 %1023.7 hPa16.1 kmESE (120°)13 km/h33.3 km/hClear
10:14 AM4.9 °C-4.5 °C51 %1024 hPa16.1 kmESE (110°)13 km/h31.5 km/hClear
10:35 AM5 °C-4.3 °C51 %1024.4 hPa16.1 kmESE (120°)14.8 km/hClear
10:55 AM5.7 °C-3.9 °C50 %1024 hPa16.1 kmESE (120°)16.7 km/hClear
11:14 AM5.9 °C-4.3 °C48 %1023.7 hPa16.1 kmSE (130°)14.8 km/h29.6 km/hClear
11:35 AM6.1 °C-4.3 °C48 %1023.7 hPa16.1 kmSE (130°)18.5 km/h27.8 km/hClear
11:55 AM5.9 °C-4.3 °C48 %1023.7 hPa16.1 kmSE (130°)18.5 km/h31.5 km/hClear
12:14 PM6.1 °C-4.4 °C47 %1023.7 hPa16.1 kmESE (120°)22.2 km/h37 km/hClear
12:35 PM6.6 °C-4.5 °C45 %1023 hPa16.1 kmESE (110°)24.1 km/h37 km/hClear
12:55 PM6.8 °C-4.5 °C45 %1023 hPa16.1 kmSE (130°)24.1 km/h37 km/hClear
1:14 PM6.3 °C-4.3 °C47 %1023.4 hPa16.1 kmESE (120°)25.9 km/h38.9 km/hClear
1:35 PM6.5 °C-4.1 °C47 %1023 hPa16.1 kmSE (140°)20.4 km/h44.4 km/hClear
1:54 PM7.4 °C-3.9 °C45 %1022.7 hPa16.1 kmESE (120°)20.4 km/h37 km/hClear
2:15 PM7.5 °C-4.3 °C43 %1022.7 hPa16.1 kmESE (120°)22.2 km/h35.2 km/hClear
2:35 PM7.1 °C-4.2 °C45 %1022.7 hPa16.1 kmESE (120°)24.1 km/h38.9 km/hClear
2:54 PM8 °C-4.1 °C42 %1022.4 hPa16.1 kmESE (120°)20.4 km/h35.2 km/hClear
3:15 PM8.6 °C-4.2 °C41 %1022.4 hPa16.1 kmESE (120°)20.4 km/h31.5 km/hClear
3:35 PM9.3 °C-3.8 °C40 %1022 hPa16.1 kmEast (100°)25.9 km/h31.5 km/hClear
4:15 PM9.1 °C-4.8 °C37 %1021.3 hPa16.1 kmESE (110°)25.9 km/h37 km/hClear
4:35 PM9.2 °C-4.7 °C37 %1021.3 hPa16.1 kmEast (100°)24.1 km/h35.2 km/hClear
4:54 PM9.6 °C-5.3 °C35 %1021 hPa16.1 kmEast (80°)35.2 km/h46.3 km/hClear
5:15 PM8.7 °C-5.4 °C37 %1021.3 hPa16.1 kmEast (90°)25.9 km/h42.6 km/hClear
5:34 PM8.5 °C-5.5 °C37 %1021.3 hPa16.1 kmEast (80°)24.1 km/h38.9 km/hClear
5:55 PM8 °C-4.8 °C40 %1021.3 hPa16.1 kmEast (90°)24.1 km/h46.3 km/hClear
6:15 PM7.8 °C-4.6 °C42 %1021.3 hPa16.1 kmEast (90°)24.1 km/h33.3 km/hClear
6:34 PM7.5 °C-4.6 °C42 %1021 hPa16.1 kmEast (90°)18.5 km/h35.2 km/hClear
6:55 PM7.5 °C-4.4 °C43 %1020.7 hPa16.1 kmNorthClear
7:15 PM7 °C-4.6 °C44 %1021 hPa16.1 kmEast (100°)20.4 km/h31.5 km/hClear
7:34 PM6.8 °C-4.5 °C45 %1021.3 hPa16.1 kmEast (90°)18.5 km/h33.3 km/hClear
7:55 PM6.8 °C-4.6 °C44 %1021.3 hPa16.1 kmEast (80°)20.4 km/h29.6 km/hClear
8:14 PM6.8 °C-4.9 °C43 %1021.7 hPa16.1 kmEast (100°)16.7 km/h29.6 km/hClear
8:34 PM6.5 °C-5 °C44 %1022 hPa16.1 kmEast (100°)18.5 km/h25.9 km/hClear
8:55 PM6 °C-4.8 °C46 %1022.4 hPa16.1 kmEast (100°)13 km/hClear
9:14 PM5.7 °C-4.8 °C47 %1022.4 hPa16.1 kmEast (100°)11.1 km/hClear
9:35 PM5.6 °C-4.6 °C48 %1022.4 hPa16.1 kmEast (90°)13 km/hClear
9:54 PM6 °C-4.5 °C47 %1022.4 hPa16.1 kmEast (90°)14.8 km/hClear
10:14 PM5.6 °C-4.3 °C49 %1022.7 hPa16.1 kmEast (80°)7.4 km/hClear
10:35 PM5.3 °C-4.1 °C51 %1022.7 hPa16.1 kmENE (70°)11.1 km/hClear
10:54 PM5.1 °C-3.9 °C53 %1022.4 hPa16.1 kmENE (70°)11.1 km/hScattered Clouds
11:15 PM5.1 °C-3.8 °C53 %1022 hPa16.1 kmENE (70°)13 km/hMostly Cloudy
11:35 PM5.2 °C-4 °C52 %1022 hPa16.1 kmENE (70°)11.1 km/hOvercast
11:54 PM5.1 °C-4 °C52 %1021.7 hPa16.1 kmEast (80°)14.8 km/hOvercast
Hourly data recorded from KISQ, located 0 kilometers away from Manistique, Michigan







STORIES FROM OUR PARTNERS